Powrót do katalogu

USA 139

AktywnyMilitariaGEO
NORAD 25336·PAYLOAD·🇺🇸 United States

Wystrzelony May 9, 1998 z Cape Canaveral Space Force Station

Loading…

TLE

ŚwieżeSource: Mike McCants

Epoka: Sep 15, 2026, 01:44 UTC

1 25336U 98029A   26258.07284612  .00000000  00000-0  00000-0 0    03
2 25336   7.2988 353.9998 0037321 323.8537  35.8972  1.00270000  5300

Śledź USA 139 w czasie rzeczywistym z AllMySat

Download on the App Store